Zurück zum Katalog

COSMOS 374 DEB

AktivUNKNOWN
NORAD 4823·DEBRIS·🇷🇺 Russia

Gestartet Oct 23, 1970 von Baikonur Cosmodrome

Loading…

Nächste Überflüge

TLE

Source: Space-Track
1 04823U 70089T   26218.92140397  .00000347  00000-0  36400-3 0  9995
2 04823  63.0183 130.3806 0943841  25.4018 339.0409 12.66330705543047

Verfolge COSMOS 374 DEB in Echtzeit mit AllMySat

Download on the App Store